"Pseudo-MPEC" for CCDC9K2

Created 2024 Nov 30 12:31:10 UT using Find_Orb

Click here for an explanation of pseudo-MPECs

 
 Astrometry: 
     CCDC9K2*1C2024 11 29.23197404 31 54.084+03 22 41.34   ~BT6V 19.04GVNEOCPG96
     CCDC9K2 1C2024 11 29.24424404 31 59.444+03 18 56.38   ~BT6V 19.01GVNEOCPG96
     CCDC9K2 1C2024 11 29.25154104 32 02.526+03 16 42.89   ~BT6V 19.14GVNEOCPG96
     CCDC9K2 KB2024 11 29.32333 04 32 11.993+02 53 25.15   ~BT8V 19.4 rZNEOCPH36
     CCDC9K2 KB2024 11 29.32804 04 32 14.023+02 52 04.80   ~BT8V 19.3 rZNEOCPH36
     CCDC9K2 KB2024 11 29.33277 04 32 16.080+02 50 44.59   ~BT8V 19.5 rZNEOCPH36
     CCDC9K2 mC2024 11 29.33526404 32 33.932+02 52 13.87   ~BT8H 19.05GVNEOCPI52
     CCDC9K2 mC2024 11 29.33543504 32 34.037+02 52 10.85   ~BT8H 19.48GVNEOCPI52
     CCDC9K2 mC2024 11 29.33560404 32 34.098+02 52 08.83   ~BT8H 19.33GVNEOCPI52
     CCDC9K2 mC2024 11 29.33577404 32 34.123+02 52 05.30   ~BT8H 19.51GVNEOCPI52
     CCDC9K2 KB2024 11 29.53857 04 36 09.69 +01 58 01.6    ~BTG2 19.1 GVNEOCPP13
     CCDC9K2 KB2024 11 29.54519104 35 55.986+01 57 56.88   ~BTE2 19.7 GXNEOCPQ06
     CCDC9K2 KB2024 11 29.54843 04 36 13.58 +01 55 47.9    ~BTG2 18.8 GVNEOCPP13
     CCDC9K2 KB2024 11 29.55268704 35 58.097+01 56 14.35   ~BTE2 19.5 GXNEOCPQ06
     CCDC9K2 KB2024 11 29.55757 04 36 17.05 +01 53 44.5    ~BTG2 19.2 GVNEOCPP13
     CCDC9K2 KB2024 11 29.56018104 36 00.171+01 54 32.53   ~BTE2 19.2 GXNEOCPQ06
     CCDC9K2 KB2024 11 29.56576 04 36 20.01 +01 51 55.2    ~BTG2 18.9 GVNEOCPP13
     CCDC9K2 KB2024 11 29.88054304 39 07.79 +00 48 32.3    ~BU1l 19.4 GXNEOCP595
     CCDC9K2 KB2024 11 29.88107304 39 09.561+00 47 25.54   ~BTMV 18.8 GXNEOCPB72
     CCDC9K2 KB2024 11 29.88837904 39 09.54 +00 47 11.6    ~BU1l 19.4 GXNEOCP595
     CCDC9K2 KB2024 11 29.89324104 39 12.742+00 45 20.85   ~BTMV 19.9 GXNEOCPB72
     CCDC9K2 KB2024 11 29.90541004 39 15.792+00 43 17.49   ~BTMV 19.5 GXNEOCPB72
     CCDC9K2 KB2024 11 29.90589104 39 25.46 +00 44 43.0    ~BTMV 19.7 GXNEOCP958
     CCDC9K2 1C2024 11 29.91487004 39 15.048+00 41 40.10   ~BTMl 20.7 GXNEOCP033
     CCDC9K2 KB2024 11 29.91497004 39 27.43 +00 43 11.0    ~BTMV 19.7 GXNEOCP958
     CCDC9K2 1C2024 11 29.91529004 39 15.138+00 41 35.80   ~BTMl 20.4 GXNEOCP033
     CCDC9K2 1C2024 11 29.91571004 39 15.217+00 41 31.80   ~BTMl 20.3 GXNEOCP033
     CCDC9K2  C2024 11 29.92481 04 39 24.09 +00 41 29.6    ~BTN2 19.7 RXNEOCP511
     CCDC9K2 KB2024 11 29.92998104 39 30.59 +00 40 41.7    ~BTN2 20.2 GXNEOCP958
     CCDC9K2  C2024 11 29.93012 04 39 25.09 +00 40 37.0    ~BTN2 19.6 RXNEOCP511
     CCDC9K2  C2024 11 29.93196 04 39 25.43 +00 40 18.5    ~BTN2 19.5 RXNEOCP511
     CCDC9K2  C2024 11 29.93550 04 39 26.06 +00 39 43.8    ~BTN2 19.3 RXNEOCP511
     CCDC9K2 KB2024 11 29.93677104 39 31.98 +00 39 34.6    ~BTN2 19.6 GXNEOCP958
     CCDC9K2 KC2024 11 29.94596704 39 23.56 +00 37 59.0    ~BTNl       VNEOCP104
     CCDC9K2 KC2024 11 29.95362504 39 24.89 +00 36 43.9    ~BTNl 19.8 GVNEOCP104
     CCDC9K2 KC2024 11 29.96002804 39 25.94 +00 35 41.2    ~BTNl 19.6 GVNEOCP104
     CCDC9K2 pC2024 11 29.97430904 39 25.87 +00 33 07.2    ~BU02 19.6 GVNEOCPL01
     CCDC9K2 KC2024 11 29.97616704 39 26.15 +00 32 48.9    ~BU02 19.4 GVNEOCPL01
     CCDC9K2 KC2024 11 29.97753004 39 26.38 +00 32 36.0    ~BU02 19.5 GVNEOCPL01
     CCDC9K2 0B2024 11 29.98158604 39 22.424+00 50 59.49   ~BU7H 19.7 VZNEOCPM49
     CCDC9K2 0B2024 11 29.98704404 39 22.871+00 50 05.00   ~BU7H 19.8 VZNEOCPM49
     CCDC9K2 0B2024 11 29.99234604 39 23.329+00 49 12.08   ~BU7H 20.0 VZNEOCPM49
     CCDC9K2 KC2024 11 30.00130504 39 31.55 +00 27 45.3    ~BU0l 19.4 GVNEOCPK62
     CCDC9K2 KB2024 11 30.00135404 39 34.72 +00 28 42.4    ~BUBl       VNEOCP204
     CCDC9K2 KC2024 11 30.00419604 39 32.14 +00 27 18.3    ~BU0l 19.7 GVNEOCPK62
     CCDC9K2 KC2024 11 30.00713004 39 32.76 +00 26 50.7    ~BU0l 20.0 GVNEOCPK62
     CCDC9K2 KC2024 11 30.01004904 39 33.34 +00 26 23.0    ~BU0l 19.6 GVNEOCPK62
     CCDC9K2 KB2024 11 30.01578904 39 37.24 +00 26 27.1    ~BUBl 20.2 GVNEOCP204
     CCDC9K2 KC2024 11 30.20463804 41 22.93 +00 00 25.4    ~BU5V 19.9 GVNEOCPH21
     CCDC9K2 KC2024 11 30.20743504 41 23.21 +00 00 02.6    ~BU5V 19.9 GVNEOCPH21
     CCDC9K2 KC2024 11 30.21023204 41 23.48 -00 00 20.0    ~BU5V 20.0 GVNEOCPH21

Station data:
(033) Karl Schwarzschild Observatory, Tautenburg  (N50.980139 E11.711240)
   Germany.  Observer B. Stecklum. 1.34-m f/3 Schmidt + CCD.
(104) San Marcello Pistoiese  (N44.064178 E10.803750)  Italy.  Observers P.
   Bacci, M. Maestripieri. Measurers P. Bacci, L. Tesi, G. Fagioli. 0.60-m
   reflector + CCD.
(204) Schiaparelli Observatory  (N45.868292 E8.769720)  Italy.  Observer L.
   Buzzi. 0.60-m f/4.64 Newtonian + CCD0.84-m f/3.5 reflector + CCD.
(511) Haute Provence  (N43.931873 E5.715700)  France.  Observers W.
   Polycarpe, M. Dennefield, W. Thuillot, B. Carry, P. David, S. Bouquillon,
   F. Taris, P. Tanga, M. Delbó, E. Saquet, V. Robert. Measurers W. Thuillot,
   S. Bouquillon, F. Taris, T. Carlucci, C. Barache. 1.20-m f/6 reflector +
   CCD.
(595) Farra d'Isonzo  (N45.915731 E13.525780)  Italy.  Observers S. Aschi, E.
   Pettarin, G. Panterotto. Measurers S. Aschi, E. Pettarin. 0.40-m f/5.15
   reflector + CCD.
(958) Observatoire de Dax  (N43.693381 W1.030530)  France.  Observer P.
   Dupouy. 0.32-m Schmidt-Cassegrain.
(B72) Soerth  (N50.698827 E7.681050)  Germany.  Observer B. Koch.
   0.36-m f/7.6 Schmidt-Cassegrain + CCD + f/7.6 focal reducer.
(G96) Mt. Lemmon Survey  (N32.442729 W110.788720)  US/Arizona.  Observer E.
   J. Christensen. 1.5-m reflector + 10K CCD.
(H21) Astronomical Research Observatory, Westfield  (N39.483054 W87.968270)
   US/Illinois.  Observer R. Holmes. Measurers S. Foglia, L. Buzzi, T.
   Linder, R. Holmes. 0.76-m f/3.0 astrograph + CCD0.81-m f/4.0 astrograph +
   CCD0.61-m f/4.5 astrograph + CCD0.40-m f/5.32 astrograph + CCD.
(H36) Sandlot Observatory, Scranton  (N38.797718 W95.706550)  US/Kansas.
   Observer G. Hug. 0.56-m reflector + CCD.
(I52) Steward Observatory, Mt. Lemmon Station  (N32.442570 W110.788920)
   US/Arizona.  Observers T. A. Pruyne, B. M. Africano, E. J. Christensen, G.
   A. Farneth, D. C. Fuls, A. R. Gibbs, A. D. Grauer, H. Gröller, J. A.
   Johnson, R. A. Kowalski, S. M. Larson, G. J. Leonard, D. Rankin, R. L.
   Seaman, F. C. Shelly, K. W. Wierzchoś. 1.0-m prime focus + CCD.
(K62) Teplice Observatory  (N50.638318 E13.846750)  Czech Republic.  Observer
   Z. Moravec. 0.43-m f/4.5 reflector + CCD.
(L01) Višnjan Observatory, Tičan  (N45.290897 E13.749300)  Croatia.
   Observers K. Korlević, D. Pujagic, V. Dobos. Measurers D. Pujagic, K.
   Korlević. 1.0-m f/2.9 reflector + CCD.
(M49) IAS Remote Observatory, Hakos  (S23.236549 E16.361720)  Namibia.
   Observers D. Husar, M. Junius. Measurer D. Husar. 0.25-m f/4.6 reflector +
   CCD.
(P13) Baihuashan Observatory, Beijing  (N39.837554 E115.573330)  China.
(Q06) Tarui Observatory, Tarui  (N35.394791 E136.495470)  Japan.

Orbital elements:  CCDC9K2
   Perihelion 2024 Oct 1.58542 +/- 0.00119 TT = 14:03:00 (JD 2460585.08542)
Epoch 2024 Nov 30.0 TT = JDT 2460644.5   Earth MOID: 0.0012      AutoNEOCP
M  51.74590236 +/- 0.0024           (J2000 ecliptic)
n   0.87092939 +/- 3.35e-5          Peri.  113.02028 +/- 0.0035
a   1.08596063 +/- 2.78e-5          Node   245.86112 +/- 0.00020
e   0.1698354 +/- 4.61e-5           Incl.    5.03839 +/- 0.0010
P   1.132/413.344d         H 29.38  G  0.15   U  5.8
q 0.90152597 +/- 2.78e-5    Q 1.27039529 +/- 8.22e-5
From 51 observations 2024 Nov. 29-30 (23.5 hr); mean residual 0".27
Residuals in arcseconds: 
241129 G96  .04-  .43-    241129 595  .19+  .08-    241129 104  .30+  .24+    
241129 G96  .06-  .34+    241129 B72  .06+  .33-    241129 104  .10-  .05-    
241129 G96  .17+  .04-    241129 595  .31-  .33-    241129 L01  .77+  .10+    
241129 H36  .18+  .05-    241129 B72  .32-  .73-    241129 L01  .16+  .34-    
241129 H36  .04-  .02-    241129 B72  .14-  .88-    241129 L01  .08+  .15-    
241129 H36  .21-  .14+    241129 958  .15-  .44+    241129 M49  .27+  .12+    
241129 I52  .27-  .12-    241129 033  .21+  .02-    241129 M49  .01+  .22+    
241129 I52  .38+  .25-    241129 958  1.0-  .17-    241129 M49  .06-  .12+    
241129 I52  .38+  .59+    241129 033  .11+  .11-    241130 K62  .03+  .08+    
241129 I52  .16-  .06-    241129 033  .15-  .09+    241130 204  .07+  .06+    
241129 P13  .33+  .36-    241129 511  .17+  .24-    241130 K62  .04-  .23+    
241129 Q06  .14+  .40+    241129 958  .49-  .33+    241130 K62  .17+  .12+    
241129 P13  .30-  .03-    241129 511  .04+  .01+    241130 K62  .21-  .28-    
241129 Q06  .30-  .17+    241129 511  .02-  .23-    241130 204  .07+  .07+    
241129 P13  .07-  .11-    241129 511  .38-  .14+    241130 H21  .06+  .11+    
241129 Q06  .14-  .02+    241129 958  .37+  .47+    241130 H21  .06+  .09+    
241129 P13  .09+  .35+    241129 104  .03-  .30+    241130 H21  .02-  .22+    

Ephemerides (geocentric):
Date (UTC) HH   RA             Dec           delta  r     elong  mag " sig PA
---- --------  ------------   ------------  ------ ------ -----  --- --------
2024 11 30 13  04 43 11.432   -00 31 20.49  .01031 0.9957 157.4 20.5 .053  93
2024 11 30 14  04 43 24.716   -00 35 53.87  .01044 0.9958 157.3 20.5 .060 102
2024 11 30 15  04 43 37.663   -00 40 20.22  .01058 0.9959 157.2 20.6 .068 108
2024 11 30 16  04 43 50.285   -00 44 39.79  .01071 0.9960 157.2 20.6 .077 113
2024 11 30 17  04 44 02.596   -00 48 52.83  .01084 0.9962 157.1 20.6 .087 116
2024 11 30 18  04 44 14.605   -00 52 59.57  .01098 0.9963 157.0 20.7 .097 119
2024 11 30 19  04 44 26.324   -00 57 00.25  .01111 0.9964 156.9 20.7 .107 122
2024 11 30 20  04 44 37.763   -01 00 55.07  .01124 0.9965 156.9 20.7 .117 124
2024 11 30 21  04 44 48.932   -01 04 44.24  .01138 0.9966 156.8 20.7 .127 126
2024 11 30 22  04 44 59.840   -01 08 27.94  .01151 0.9967 156.7 20.8 .137 127
2024 11 30 23  04 45 10.497   -01 12 06.38  .01165 0.9968 156.7 20.8 .148 128
